User: anonymous   Login
Location: Unspecified
(0.0000°N, 0.0000°E)
Time: 21:48:37
(UTC+00:00)
Language:

COSMOS-2408 - Orbit

View from above orbital plane
View from above orbital plane
View from above satellite
View from above satellite

Ground track
Ground track

The orbit data is extracted from the following two-line orbital elements,

1 28419U 04037A   17117.72772837 -.00000007 +00000-0 -11901-3 0  9992
2 28419 082.4830 256.3946 0016131 026.8890 333.3027 12.45606914572554
Epoch (UTC): 27 April 2017 17:27:55
Eccentricity: 0.0016131
inclination: 82.4830°
perigee height: 1470 km
apogee height: 1495 km
right ascension of ascending node: 256.3946°
argument of perigee: 26.8890°
revolutions per day: 12.45606914
mean anomaly at epoch: 333.3027°
orbit number at epoch: 57255

The dashed part of the orbit path shows where the satellite is in the earth's shadow,  

DLR